LDSPLDDU

Guest
Details From LDSP - SPLIT
To LDDU - DUBROVNIK
Flight Number -
Tags generated
Created
Modified
Stats Distance 104 nm / 193 km
Max Altitude 8,100 ft / 2,469 m
Waypoints 3
Social Downloads 2
Likes 0
Share VATSIM

Download

Looking for another format? Having issues loading an existing format? Contact us
Advertisement - Login to hide

Notes

Basic altitude profile: - Ascent Rate: 2500ft/min - Ascent Speed: 250kts - Cruise Altitude: 35000ft - Cruise Speed: 420kts - Descent Rate: 1500ft/min - Descent Speed: 250kts Options: - Use NATs: yes - Use PACOTS: yes - Use low airways: yes - Use high airways: yes

Route

LDSP NERRA LDDU

ID Type Via Altitude Latitude Longitude Leg Dist Tot Dist Heading (true) Name
O LDSP APT - 0 ft / 0 m 43.53903˚ 16.29811˚ - 0 nm - SPLIT
NERRA FIX - 8,100 ft / 2,469 m 42.90528˚ 17.54333˚ 66 nm 66 nm 125° / 125° -
O LDDU APT - 0 ft / 0 m 42.56284˚ 18.26450˚ 37 nm 104 nm 123° / 123° DUBROVNIK

Altitude Profile

Advertisement - Login to hide

LDSP

Details ICAO LDSP (SPU)
Name SPLIT
Region Croatia
Timezone Europe/Zagreb (UTC+1.0)
Stats Elevation 79 ft / 24 m (AMSL)
Location 43.539026° 16.298112°
Runways 1
Magnetic Variation 3.837° E

METAR

LDSP 130200Z AUTO 15005KT 110V220 9999 -SHRA SCT025/// BKN034/// BKN042/// 15/11 Q1015

Decode

TAF

TAF LDSP 122325Z 1300/1400 14008KT 9999 BKN035 TX15/1300Z TN07/1323Z BECMG 1300/1302 23007KT TEMPO 1300/1312 RA PROB30 TEMPO 1300/1304 4000 SHRA SCT010 FEW020TCU BKN030 BECMG 1302/1304 34012KT BECMG 1307/1309 32007KT

Decode

Departure Runways

ID Width Length Bearing (true) Bearing (mag) Surface Threshold Offset Overrun Length
05 148 ft / 45 m 8,357 ft / 2,547 m 52.48° 48.64° Asphalt 0 ft / 0 m 76 ft / 23 m
23 148 ft / 45 m 8,357 ft / 2,547 m 232.50° 228.66° Asphalt 525 ft / 160 m 820 ft / 250 m

LDDU

Details ICAO LDDU (DBV)
Name DUBROVNIK
Region Croatia
Timezone Europe/Zagreb (UTC+1.0)
Stats Elevation 527 ft / 161 m (AMSL)
Location 42.562840° 18.264499°
Runways 1
Magnetic Variation 4.100° E

METAR

LDDU 130200Z 14013KT 9999 OVC003 14/14 Q1019

Decode

TAF

TAF AMD LDDU 130204Z 1302/1400 14012KT 9999 SCT015 BKN025 TX14/1302Z TN08/1323Z TEMPO 1302/1306 BKN004 TEMPO 1306/1319 BKN010 BECMG 1311/1313 19012KT 4000 RA PROB40 TEMPO 1312/1318 3000 TSRA SCT010 FEW020CB BKN030 TEMPO 1316/1318 29009KT BECMG 1318/1320 VRB02KT 9999 NSW

Decode

Destination Runways

ID Width Length Bearing (true) Bearing (mag) Surface Threshold Offset Overrun Length
12 148 ft / 45 m 10,803 ft / 3,293 m 118.30° 114.20° Asphalt 488 ft / 149 m 100 ft / 30 m
30 148 ft / 45 m 10,803 ft / 3,293 m 298.33° 294.23° Asphalt 0 ft / 0 m 100 ft / 30 m

Approach Navaids

Runway Type Ident Frequency Range Bearing (true) Bearing (mag) Slope Elevation
12 Localiser IDU 110.10 MHz 25 nm / 46 km 118.21° 114.11° - 469 ft / 143 m (AMSL)
12 Glidescope IDU 110.10 MHz 25 nm / 46 km 118.21° 114.11° 3.00° 502 ft / 153 m (AMSL)

Popular Alternatives